Location: Buckeye Ditch
(40.9104°N, 122.9517°W)
Time: 13:55:28
(UTC+00:00)

Vanguard 1 Rocket - All Passes

Search period start: 18 May 2025 00:00
Search period end: 28 May 2025 00:00
Orbit: 651 x 4216 km, 34.3° (Epoch: 17 May)

Date Brightness Start Highest point End Pass type
(mag) Time Alt. Az. Time Alt. Az. Time Alt. Az.
18 May - 00:58:10 10° W 01:23:02 60° SSW 01:38:48 10° SE daylight
18 May - 03:33:50 10° W 03:49:42 27° SW 04:00:10 10° S visible
18 May - 16:26:47 10° SSE 16:36:55 17° ESE 16:49:23 10° E daylight
18 May - 18:44:54 10° SSW 19:03:34 48° SE 19:27:28 10° E daylight
18 May - 21:10:56 10° WSW 21:34:53 71° S 21:58:31 10° E daylight
18 May - 23:41:33 10° W 00:07:36 69° SSW 00:26:18 10° ESE daylight
19 May - 02:15:22 10° W 02:36:41 41° SW 02:50:07 10° SSE daylight
19 May - 17:33:43 10° SSW 17:49:12 35° SE 18:10:16 10° E daylight
19 May - 19:57:07 10° SW 20:18:28 64° SSE 20:43:27 10° E daylight
19 May - 22:25:45 10° W 22:51:17 73° S 23:12:54 10° ESE daylight
20 May - 00:57:59 10° W 01:22:33 55° SSW 01:38:46 10° SE daylight
20 May - 03:34:30 10° W 03:48:51 22° SW 03:59:01 10° S visible
20 May - 16:24:26 10° SSE 16:35:53 22° SE 16:51:03 10° E daylight
20 May - 18:44:27 10° SW 19:02:50 53° SSE 19:27:28 10° E daylight
20 May - 21:10:53 10° WSW 21:34:32 73° S 21:58:37 10° E daylight
20 May - 23:41:25 10° W 00:07:13 66° SSW 00:26:22 10° ESE daylight
21 May - 02:15:23 10° W 02:35:56 36° SW 02:49:36 10° SSE daylight
21 May - 17:32:55 10° SSW 17:48:18 40° SE 18:10:26 10° E daylight
21 May - 19:57:01 10° WSW 20:17:59 68° SSE 20:43:27 10° E daylight
21 May - 22:25:43 10° W 22:50:57 72° S 23:13:00 10° ESE daylight
22 May - 00:57:51 10° W 01:21:55 50° SW 01:38:32 10° SE daylight
22 May - 03:35:47 10° W 03:47:55 18° WSW 03:57:12 10° SSW visible
22 May - 16:22:54 10° S 16:34:54 26° SE 16:51:57 10° E daylight
22 May - 18:44:11 10° SW 19:02:12 58° SSE 19:27:23 10° E daylight
22 May - 21:10:55 10° WSW 21:34:12 74° S 21:58:40 10° E daylight
22 May - 23:41:20 10° W 00:06:44 62° SSW 00:26:18 10° SE daylight
23 May - 02:15:38 10° W 02:35:04 31° SW 02:48:45 10° S daylight
23 May - 15:16:12 10° SE 15:22:27 13° ESE 15:30:01 10° E daylight
23 May - 17:32:26 10° SSW 17:47:31 45° SE 18:10:25 10° E daylight
23 May - 19:57:02 10° WSW 20:17:35 71° SSE 20:43:24 10° E daylight
23 May - 22:25:44 10° W 22:50:34 70° SSW 23:13:01 10° ESE daylight
24 May - 00:57:49 10° W 01:21:10 45° SW 01:38:06 10° SSE daylight
24 May - 03:38:17 10° W 03:46:54 14° WSW 03:54:08 10° SW daylight
24 May - 16:21:53 10° S 16:34:00 31° SE 16:52:23 10° E daylight
24 May - 18:44:07 10° SW 19:01:42 63° SSE 19:27:15 10° E daylight
24 May - 21:11:01 10° W 21:33:52 74° S 21:58:40 10° ESE daylight
24 May - 23:41:18 10° W 00:06:08 57° SSW 00:26:05 10° SE daylight
25 May - 02:16:11 10° W 02:34:05 26° SW 02:47:31 10° S daylight
25 May - 15:13:28 10° SSE 15:21:32 17° ESE 15:32:21 10° E daylight
25 May - 17:32:09 10° SW 17:46:52 51° SSE 18:10:17 10° E daylight
25 May - 19:57:10 10° WSW 20:17:16 72° S 20:43:19 10° E daylight
25 May - 22:25:48 10° W 22:50:08 67° SSW 23:12:54 10° ESE daylight
26 May - 00:57:55 10° W 01:20:18 39° SW 01:37:23 10° SSE daylight
26 May - 16:21:15 10° SSW 16:33:15 36° SE 16:52:31 10° E daylight
26 May - 18:44:11 10° WSW 19:01:17 66° SSE 19:27:04 10° E daylight
26 May - 21:11:10 10° W 21:33:33 72° S 21:58:35 10° ESE daylight
26 May - 23:41:20 10° W 00:05:27 52° SSW 00:25:39 10° SE daylight
27 May - 02:17:16 10° W 02:33:02 21° SW 02:45:40 10° SSW daylight
27 May - 15:11:53 10° S 15:20:42 22° SE 15:33:31 10° E daylight
27 May - 17:32:05 10° SW 17:46:22 56° SSE 18:10:05 10° E daylight
27 May - 19:57:23 10° WSW 20:16:59 73° S 20:43:12 10° E daylight
27 May - 22:25:54 10° W 22:49:36 63° SSW 23:12:38 10° SE daylight
